OEITH EDDK-EDMO

Flight info

Callsign OEITH
Flight time 0h 48m
Altitude 35000
Route KUMIK8F KUMIK Y854 BOMBI/N0441F270 T104 DKB/N0417F230 Z818 ELVAG Y161 MAH
Aircraft CL60/M-SDFGHIRWXY/H

Departure

Time 2026-05-01 08:36
Airport Cologne Bonn Airport (EDDK)

Arrival

Time 2026-05-01 09:25
Airport Oberpfaffenhofen Airport (EDMO)
Time Latitude Longitude Altitude Speed Heading
2026-05-01 08:07 50.87138 7.12500 231 ft 0 kts 94°
2026-05-01 08:32 50.87132 7.12507 232 ft 1 kts 195°
2026-05-01 08:32 50.87142 7.12475 231 ft 7 kts 319°
2026-05-01 08:32 50.87119 7.12406 231 ft 10 kts 183°
2026-05-01 08:33 50.87063 7.12466 232 ft 10 kts 137°
2026-05-01 08:33 50.86989 7.12574 234 ft 17 kts 135°
2026-05-01 08:33 50.86893 7.12715 236 ft 19 kts 136°
2026-05-01 08:33 50.86795 7.12856 238 ft 19 kts 137°
2026-05-01 08:34 50.86694 7.13003 241 ft 19 kts 137°
2026-05-01 08:34 50.86591 7.13152 245 ft 18 kts 137°
2026-05-01 08:34 50.86524 7.13249 247 ft 10 kts 137°
2026-05-01 08:34 50.86473 7.13323 249 ft 9 kts 136°
2026-05-01 08:35 50.86433 7.13380 250 ft 6 kts 139°
2026-05-01 08:35 50.86393 7.13435 252 ft 8 kts 139°
2026-05-01 08:35 50.86356 7.13486 253 ft 5 kts 129°
2026-05-01 08:35 50.86363 7.13549 253 ft 4 kts 50°
2026-05-01 08:36 50.86382 7.13601 254 ft 7 kts 64°
2026-05-01 08:36 50.86521 7.14061 259 ft 102 kts 65°
2026-05-01 08:36 50.86947 7.15479 619 ft 164 kts 69°
2026-05-01 08:36 50.87429 7.17120 1671 ft 177 kts 72°
2026-05-01 08:37 50.87904 7.18936 2799 ft 191 kts 75°
2026-05-01 08:37 50.88435 7.20985 3792 ft 213 kts 73°
2026-05-01 08:37 50.89040 7.23151 4740 ft 227 kts 70°
2026-05-01 08:37 50.89727 7.25435 5595 ft 229 kts 69°
2026-05-01 08:38 50.90409 7.27697 6481 ft 230 kts 68°
2026-05-01 08:38 50.91077 7.29926 7335 ft 234 kts 68°
2026-05-01 08:38 50.91776 7.32274 8219 ft 237 kts 68°
2026-05-01 08:38 50.92402 7.34642 9097 ft 237 kts 79°
2026-05-01 08:39 50.92582 7.37333 9961 ft 258 kts 88°
2026-05-01 08:39 50.92685 7.40257 11022 ft 277 kts 88°
2026-05-01 08:39 50.92723 7.41274 11303 ft 286 kts 88°
2026-05-01 08:40 50.93328 7.57096 16324 ft 334 kts 86°
2026-05-01 08:40 50.93470 7.60811 17381 ft 341 kts 86°
2026-05-01 08:41 50.93615 7.64610 18394 ft 347 kts 86°
2026-05-01 08:41 50.93759 7.68418 19350 ft 354 kts 86°
2026-05-01 08:41 50.93909 7.72419 19763 ft 371 kts 86°
2026-05-01 08:41 50.94060 7.76479 20013 ft 371 kts 86°
2026-05-01 08:42 50.93981 7.80520 20320 ft 375 kts 99°
2026-05-01 08:42 50.93121 7.84502 21226 ft 382 kts 116°
2026-05-01 08:42 50.91719 7.88098 22337 ft 382 kts 122°
2026-05-01 08:42 50.90251 7.91594 23297 ft 385 kts 122°
2026-05-01 08:43 50.88786 7.95098 24102 ft 391 kts 122°
2026-05-01 08:43 50.87275 7.98705 24890 ft 396 kts 122°
2026-05-01 08:43 50.85727 8.02395 25650 ft 402 kts 122°
2026-05-01 08:43 50.84125 8.06012 26365 ft 408 kts 128°
2026-05-01 08:44 50.82008 8.09024 27049 ft 416 kts 143°
2026-05-01 08:44 50.79532 8.11538 27656 ft 422 kts 146°
2026-05-01 08:44 50.77054 8.14029 28264 ft 427 kts 145°
2026-05-01 08:44 50.74519 8.16578 28864 ft 431 kts 145°
2026-05-01 08:45 50.72003 8.19106 29418 ft 435 kts 145°
2026-05-01 08:45 50.69438 8.21680 29956 ft 439 kts 145°
2026-05-01 08:45 50.67173 8.23952 30398 ft 443 kts 145°
2026-05-01 08:45 50.64581 8.26548 30949 ft 445 kts 145°
2026-05-01 08:46 50.61975 8.29154 31614 ft 444 kts 145°
2026-05-01 08:46 50.59378 8.31747 32312 ft 441 kts 145°
2026-05-01 08:46 50.56810 8.34310 32988 ft 438 kts 146°
2026-05-01 08:46 50.54255 8.36856 33635 ft 435 kts 145°
2026-05-01 08:47 50.51704 8.39395 34228 ft 433 kts 146°
2026-05-01 08:47 50.49156 8.41929 34785 ft 432 kts 146°
2026-05-01 08:47 50.46585 8.44482 35080 ft 436 kts 146°
2026-05-01 08:47 50.43984 8.47062 35319 ft 438 kts 146°
2026-05-01 08:48 50.38770 8.52225 35345 ft 456 kts 146°
2026-05-01 08:48 50.33140 8.57145 35352 ft 467 kts 150°
2026-05-01 08:49 50.27395 8.61947 35356 ft 468 kts 150°
2026-05-01 08:49 50.21635 8.66751 35366 ft 467 kts 150°
2026-05-01 08:50 50.16115 8.71346 35372 ft 467 kts 150°
2026-05-01 08:50 50.10401 8.76093 35370 ft 466 kts 150°
2026-05-01 08:51 50.04877 8.81282 35371 ft 464 kts 140°
2026-05-01 08:51 50.00067 8.87946 35364 ft 463 kts 136°
2026-05-01 08:52 49.95306 8.94662 35354 ft 463 kts 136°
2026-05-01 08:52 49.90539 9.01372 35363 ft 463 kts 136°
2026-05-01 08:53 49.85703 9.08160 35365 ft 463 kts 136°
2026-05-01 08:53 49.80940 9.14829 35361 ft 463 kts 136°
2026-05-01 08:54 49.76222 9.21416 35364 ft 463 kts 136°
2026-05-01 08:54 49.71545 9.27928 35360 ft 463 kts 135°
2026-05-01 08:55 49.66765 9.34568 35361 ft 463 kts 136°
2026-05-01 08:55 49.61969 9.41256 35356 ft 463 kts 133°
2026-05-01 08:56 49.57701 9.48580 35314 ft 451 kts 128°
2026-05-01 08:56 49.55637 9.52211 34874 ft 443 kts 128°
2026-05-01 08:56 49.53628 9.55742 34107 ft 443 kts 128°
2026-05-01 08:57 49.51585 9.59329 33179 ft 447 kts 128°
2026-05-01 08:57 49.49549 9.62898 32204 ft 450 kts 128°
2026-05-01 08:57 49.47468 9.66538 31365 ft 446 kts 129°
2026-05-01 08:57 49.45409 9.70132 30538 ft 440 kts 129°
2026-05-01 08:58 49.43404 9.73627 29727 ft 434 kts 129°
2026-05-01 08:58 49.41436 9.77050 28946 ft 428 kts 129°
2026-05-01 08:58 49.39471 9.80464 28180 ft 422 kts 129°
2026-05-01 08:58 49.37529 9.83832 27416 ft 415 kts 129°
2026-05-01 08:59 49.35638 9.87101 26646 ft 409 kts 129°
2026-05-01 08:59 49.33752 9.90358 25874 ft 404 kts 129°
2026-05-01 08:59 49.31899 9.93553 25113 ft 398 kts 128°
2026-05-01 08:59 49.30069 9.96705 24331 ft 392 kts 128°
2026-05-01 09:00 49.28267 9.99805 23582 ft 386 kts 128°
2026-05-01 09:00 49.26495 10.02850 22809 ft 380 kts 128°
2026-05-01 09:00 49.24757 10.05832 22017 ft 375 kts 128°
2026-05-01 09:00 49.23027 10.08799 21220 ft 371 kts 128°
2026-05-01 09:01 49.21320 10.11722 20442 ft 366 kts 128°
2026-05-01 09:01 49.19643 10.14591 19653 ft 361 kts 128°
2026-05-01 09:01 49.17983 10.17430 18877 ft 356 kts 128°
2026-05-01 09:01 49.16331 10.20204 18128 ft 353 kts 132°
2026-05-01 09:02 49.14368 10.22454 17341 ft 355 kts 148°
2026-05-01 09:02 49.12059 10.23736 16566 ft 358 kts 166°
2026-05-01 09:02 49.09591 10.24052 15762 ft 356 kts 175°
2026-05-01 09:02 49.07117 10.24143 14911 ft 351 kts 175°
2026-05-01 09:03 49.04722 10.24241 14092 ft 346 kts 176°
2026-05-01 09:03 49.02320 10.24340 13275 ft 341 kts 175°
2026-05-01 09:03 48.99961 10.24437 12562 ft 336 kts 175°
2026-05-01 09:03 48.97649 10.24539 12140 ft 327 kts 174°
2026-05-01 09:04 48.95467 10.25186 11615 ft 318 kts 155°
2026-05-01 09:04 48.93596 10.26902 11387 ft 310 kts 137°
2026-05-01 09:04 48.92032 10.29066 11350 ft 292 kts 134°
2026-05-01 09:04 48.90541 10.31167 11263 ft 289 kts 134°
2026-05-01 09:05 48.89136 10.33145 11073 ft 286 kts 134°
2026-05-01 09:05 48.87691 10.35177 10880 ft 284 kts 134°
2026-05-01 09:05 48.86232 10.37227 10682 ft 282 kts 134°
2026-05-01 09:05 48.84790 10.39253 10553 ft 280 kts 134°
2026-05-01 09:06 48.83376 10.41245 10432 ft 280 kts 133°
2026-05-01 09:06 48.82000 10.43379 10348 ft 279 kts 130°
2026-05-01 09:06 48.80645 10.45553 10346 ft 280 kts 130°
2026-05-01 09:06 48.79310 10.47691 10333 ft 280 kts 130°
2026-05-01 09:07 48.77981 10.49815 10326 ft 279 kts 130°
2026-05-01 09:07 48.76629 10.51977 10320 ft 280 kts 130°
2026-05-01 09:07 48.75288 10.54103 10318 ft 279 kts 131°
2026-05-01 09:07 48.73949 10.56211 10319 ft 279 kts 131°
2026-05-01 09:08 48.72586 10.58362 10320 ft 280 kts 131°
2026-05-01 09:08 48.71235 10.60494 10331 ft 280 kts 131°
2026-05-01 09:08 48.69896 10.62610 10336 ft 280 kts 131°
2026-05-01 09:08 48.68527 10.64772 10325 ft 280 kts 131°
2026-05-01 09:09 48.67195 10.66876 10331 ft 280 kts 131°
2026-05-01 09:09 48.65866 10.68978 10325 ft 280 kts 131°
2026-05-01 09:09 48.64491 10.71152 10333 ft 280 kts 131°
2026-05-01 09:09 48.63154 10.73265 10330 ft 280 kts 131°
2026-05-01 09:10 48.61805 10.75396 10345 ft 280 kts 131°
2026-05-01 09:10 48.60458 10.77525 10224 ft 282 kts 131°
2026-05-01 09:10 48.59088 10.79687 9988 ft 280 kts 131°
2026-05-01 09:10 48.57763 10.81794 9704 ft 275 kts 131°
2026-05-01 09:11 48.56466 10.83868 9318 ft 271 kts 131°
2026-05-01 09:11 48.55187 10.85912 9034 ft 263 kts 131°
2026-05-01 09:11 48.53939 10.87907 8764 ft 255 kts 131°
2026-05-01 09:11 48.52738 10.89825 8498 ft 249 kts 131°
2026-05-01 09:12 48.51570 10.91691 8231 ft 244 kts 131°
2026-05-01 09:12 48.50400 10.93561 7958 ft 243 kts 131°
2026-05-01 09:12 48.49237 10.95418 7681 ft 243 kts 131°
2026-05-01 09:12 48.48072 10.97249 7404 ft 243 kts 131°
2026-05-01 09:13 48.46901 10.99079 7131 ft 241 kts 131°
2026-05-01 09:13 48.45749 11.00878 7035 ft 236 kts 131°
2026-05-01 09:13 48.44591 11.02687 6913 ft 239 kts 131°
2026-05-01 09:13 48.43438 11.04486 6817 ft 238 kts 131°
2026-05-01 09:14 48.42280 11.06291 6722 ft 238 kts 131°
2026-05-01 09:14 48.41135 11.08073 6629 ft 237 kts 131°
2026-05-01 09:14 48.39990 11.09857 6536 ft 237 kts 131°
2026-05-01 09:14 48.38834 11.11653 6438 ft 237 kts 131°
2026-05-01 09:15 48.37685 11.13439 6347 ft 237 kts 131°
2026-05-01 09:15 48.36527 11.15238 6168 ft 239 kts 131°
2026-05-01 09:15 48.35381 11.17015 5976 ft 236 kts 131°
2026-05-01 09:15 48.34241 11.18782 5867 ft 235 kts 131°
2026-05-01 09:16 48.33094 11.20560 5757 ft 235 kts 131°
2026-05-01 09:16 48.31958 11.22318 5652 ft 234 kts 131°
2026-05-01 09:16 48.30824 11.24073 5550 ft 233 kts 131°
2026-05-01 09:17 48.28552 11.27584 5358 ft 233 kts 131°
2026-05-01 09:17 48.27420 11.29332 5252 ft 232 kts 131°
2026-05-01 09:17 48.25297 11.32953 5068 ft 225 kts 113°
2026-05-01 09:18 48.24791 11.35079 4994 ft 210 kts 107°
2026-05-01 09:18 48.23902 11.39022 4980 ft 196 kts 107°
2026-05-01 09:19 48.22979 11.42871 4971 ft 197 kts 115°
2026-05-01 09:19 48.22033 11.44395 4747 ft 207 kts 147°
2026-05-01 09:19 48.20615 11.44781 4483 ft 216 kts 186°
2026-05-01 09:20 48.18190 11.42118 4003 ft 215 kts 221°
2026-05-01 09:20 48.16105 11.39184 3678 ft 204 kts 219°
2026-05-01 09:21 48.13998 11.36298 2778 ft 207 kts 219°
2026-05-01 09:21 48.13064 11.35008 2582 ft 196 kts 220°
2026-05-01 09:21 48.10836 11.32766 2797 ft 211 kts 198°
2026-05-01 09:22 48.08198 11.32530 2985 ft 179 kts 173°
2026-05-01 09:22 48.06072 11.30953 2962 ft 177 kts 224°
2026-05-01 09:23 48.05273 11.29643 3006 ft 162 kts 224°
2026-05-01 09:23 48.04564 11.26819 2784 ft 151 kts 301°
2026-05-01 09:24 48.06201 11.25919 2499 ft 127 kts 27°
2026-05-01 09:24 48.06924 11.26615 2218 ft 122 kts 46°
2026-05-01 09:24 48.08089 11.28241 1921 ft 91 kts 43°
2026-05-01 09:25 48.08712 11.29090 1906 ft 30 kts 42°
2026-05-01 09:25 48.08857 11.29193 1903 ft 7 kts 290°
2026-05-01 09:26 48.08861 11.29096 1903 ft 11 kts 270°
2026-05-01 09:26 48.08858 11.28839 1904 ft 11 kts 258°
2026-05-01 09:26 48.08806 11.28737 1905 ft 9 kts 222°
2026-05-01 09:27 48.08728 11.28629 1907 ft 10 kts 222°
2026-05-01 09:27 48.08704 11.28548 1908 ft 11 kts 325°
2026-05-01 09:27 48.08765 11.28489 1907 ft 9 kts 326°
2026-05-01 09:28 48.08809 11.28506 1906 ft 8 kts 41°
2026-05-01 09:28 48.08866 11.28582 1905 ft 7 kts 43°
2026-05-01 09:28 48.08894 11.28643 1904 ft 4 kts 69°
2026-05-01 09:28 48.08896 11.28650 1904 ft 0 kts 69°